Regional Weather Roundup
Issued by NWS

Home | Current Version | Previous Version | Graphics & Text | Print | Product List | Glossary On
Versions: 1 2 3 4 5 6 7 8 9 10 11 12 13 14 15 16 17 18 19 20 21 22 23 24 25 26 27 28 29 30 31 32 33 34 35 36 37 38 39 40 41 42 43 44 45 46 47 48 49 50
000
ASUS43 KLOT 211908
RWRIL

ILLINOIS REGIONAL WEATHER ROUNDUP
NATIONAL WEATHER SERVICE CHICAGO/ROMEOVILLE IL
100 PM CST SAT JAN 21 2017

NOTE: "FAIR" INDICATES FEW OR NO CLOUDS BELOW 12,000 FEET WITH NO
SIGNIFICANT WEATHER AND/OR OBSTRUCTIONS TO VISIBILITY.

* THESE STATIONS ARE NOT UNDER NWS QUALITY CONTROL. THEY ALSO MAY NOT
  REPORT WEATHER SUCH AS PRECIPITATION OR FOG.

ILZ001-002-007-009-015-016-024-212000-
NORTHWEST ILLINOIS

CITY           SKY/WX    TMP DP  RH WIND       PRES   REMARKS
MOLINE         CLOUDY    50  43  77 W10       29.45S
STERLING*      SUNNY     53  45  74 SW13G18   29.45S
SAVANNA*       CLOUDY    45  43  92 SW9       29.45R
$$

ILZ003-004-008-010-011-017-018-212000-
NORTH CENTRAL ILLINOIS

CITY           SKY/WX    TMP DP  RH WIND       PRES   REMARKS
ROCKFORD       PTSUNNY   54  44  69 SW15G23   29.44F
FREEPORT*      CLOUDY    50  45  82 SW10G16   29.44F
ROCHELLE*      MOSUNNY   54  46  74 SW20G26   29.45S
DE KALB*       PTSUNNY   56  48  75 SW20G25   29.45F
$$

ILZ005-006-012>014-019>023-212000-
NORTHEAST ILLINOIS

CITY           SKY/WX    TMP DP  RH WIND       PRES   REMARKS
CHICAGO-OHARE  MOSUNNY   58  44  60 SW16G23   29.45F
CHICAGO-MIDWAY MOSUNNY   59  47  64 S14G22    29.47F
AURORA         SUNNY     58  47  66 S14       29.45F
LANSING*       SUNNY     58  52  80 S16       29.49F
JOLIET*        MOSUNNY   59  49  67 SW9G16    29.48S
WAUKEGAN       SUNNY     57  46  66 SW16      29.44F
DUPAGE AIRPORT MOSUNNY   57  45  64 SW14G23   29.45F
KANKAKEE*      SUNNY     59  50  70 S18       29.50F
WHEELING       SUNNY     58  44  60 SW14G22   29.46F
MORRIS*        MOSUNNY   58  48  70 S14       29.46F
NORTHERLY ISL    N/A     58  46  64 S16         N/A
$$

LMZ740>746-212000-
SOUTHERN LAKE MICHIGAN

STATION/POSITION SKY/WX   TEMP    WIND        PRES    VSBY  WAVE
                          AIR SEA DIR/SP/G                  HT/PER
                          (F)     (DEG/KT/KT) (MB)    (MI)  (FT/S)
HARRISON CRIB              56     200/ 19/ 20   N/A
BURNHAM HARBOR             58     190/ 12/ 18   N/A
CALUMET HARBOR             58     170/ 12/ 19   N/A
BURNS HARBOR               57     190/ 14/ 22  999.7F
MICHIGAN CITY              57     170/ 17/ 20   N/A
$$

ILZ025>027-034>036-040-047-049-050-058-095>099-212000-
WEST-CENTRAL ILLINOIS

CITY           SKY/WX    TMP DP  RH WIND       PRES   REMARKS
QUINCY         SUNNY     55  45  68 SW15G22   29.49F
GALESBURG*     SUNNY     53  46  76 SW10      29.47S
MACOMB*        SUNNY     55  46  73 SW20G25   29.49F
JACKSONVILLE*  SUNNY     60  44  54 W12G17    29.49F
PITTSFIELD*    SUNNY     59  42  53 SW15G24   29.50F
$$

ILZ028>032-037-038-041>044-048-051>054-059>061-212000-
CENTRAL ILLINOIS

CITY           SKY/WX    TMP DP  RH WIND       PRES   REMARKS
PONTIAC        SUNNY     60  51  71 SW20      29.49S
BLOOMINGTON    SUNNY     60  46  59 SW21G26   29.49F
DECATUR        SUNNY     62  49  62 SW17G24   29.50F
PEORIA         SUNNY     58  44  60 SW13      29.48F
LACON*         SUNNY     58  43  58 SW12G21   29.46S
LINCOLN*       SUNNY     62  47  57 SW9G18    29.49F
SPRINGFIELD    SUNNY     64  45  49 SW16G23   29.49F
TAYLORVILLE    SUNNY     62  50  64 S16       29.51F
$$

ILZ033-039-045-046-055>057-062-063-212000-
EAST-CENTRAL ILLINOIS

CITY           SKY/WX    TMP DP  RH WIND       PRES   REMARKS
CHAMPAIGN      SUNNY     61  50  67 SW18      29.51F
RANTOUL*       SUNNY     63  53  70 SW15G22   29.51F
MATTOON        SUNNY     62  52  69 S10       29.53F
PARIS*         SUNNY     62  55  78 S16       29.55F
$$

ILZ079-100>102-212000-
SOUTHWEST ILLINOIS

CITY           SKY/WX    TMP DP  RH WIND       PRES   REMARKS
ALTON          SUNNY     46  45  93 S10       29.52F
BELLEVILLE     SUNNY     67  50  55 VRB7      29.51F
CAHOKIA*       SUNNY     67  43  41 SW12      29.52F
SPARTA*        SUNNY     66  47  49 S13G20    29.56F
$$

ILZ064>066-069>071-074>076-080>082-084>086-088>090-092>094-212000-
SOUTH-CENTRAL ILLINOIS

CITY           SKY/WX    TMP DP  RH WIND       PRES   REMARKS
CARBONDALE     SUNNY     67  55  65 S22G30    29.56F
CAIRO*         SUNNY     68  54  61 S14G20    29.59F
EFFINGHAM*     SUNNY     65  53  63 S13       29.55F
MT. VERNON     MOSUNNY   67  57  70 SW15      29.55F
CENTRALIA*     SUNNY     67  53  61 S15       29.53F
SALEM*         SUNNY     67  51  56 SW16      29.54F
METROPOLIS*    SUNNY     69  50  50 S18G28    29.60F
$$

ILZ067-068-072-073-078-083-087-091-212000-
SOUTHEAST ILLINOIS

CITY           SKY/WX    TMP DP  RH WIND       PRES   REMARKS
LAWRENCEVILLE  SUNNY     66  55  67 SW20G25   29.57F
FLORA*         SUNNY     67  55  64 S20       29.55F
FAIRFIELD*     MOSUNNY   67  55  66 SW10      29.55F
HARRISBURG*    SUNNY     68  54  60 S20       29.58F
ROBINSON*      SUNNY     63  54  72 SW18G24   29.57F
CARMI*         SUNNY     67  54  61 S20G28    29.57F
$$

ABBREVIATIONS USED IN REMARKS
   TC - TEMPERATURE IN CELSIUS
  WCI - WIND CHILL INDEX
   HX - HEAT INDEX
  VSB - VISIBILITY
$$





USA.gov is the U.S. government's official web portal to all federal, state and local government web resources and services.